Погода в Мельгунах

Россия / Тамбовская область     52°09′08″N   40°51′30″E
темп.,
°C
ветер,
м/с
пор.,
м/с
влажн.,
%
обл.,
%
осадки,
мм/ч
давл.,
гПа
погр.,
м
17 мая, пн
пн1700:00+17вюв447697 0.0 101249
03:00+15вюв478244 0.0 1012106
06:00+17юв367685 0.0 1011104
09:00+23юв6115851 0.0 1012449
12:00+25юв7104524 0.0 1012761
15:00+26вюв7115252 0.0 10111151
18:00+23вюв51264100 0.0 1010366
21:00+20вюв61664100 0.0 1010293
18 мая, вт
вт1800:00+18вюв6175877 0.0 1010320
03:00+16вюв614586 0.0 1010237
06:00+15вюв4117037 0.0 1010204
09:00+21юв59535 0.0 1010335
12:00+26вюв7114745 0.0 1009962
15:00+26юв81453100 0.0 10081412
18:00+24юв496449 0.0 1007294
21:00+19вюв3479100 0.0 100848
19 мая, ср
ср1900:00+16ююз478541 0.0 1009127
03:00+15всв1192100 0.0 100912
06:00+16всв248699 0.0 1008102
09:00+20всв2273100 0.1 1009322
12:00+24вюв4558100 0.0 10091145
15:00+25юв6105497 0.0 10081472
18:00+24вюв376852 0.4 1006600
21:00+19ю61286100 3.3 1007488
20 мая, чт
чт2000:00+15ссв239275 1.4 100654
03:00+14ююв369890 2.1 1006213
06:00+14ююз4894100 0.3 1007404
09:00+17ю677795 0.3 1008918
12:00+18ю787095 0.4 10101245
15:00+19ю7968100 1.2 10101379
18:00+17ююз687678 0.4 1011889
21:00+13ю37900 0.4 1013130
21 мая, пт
пт2100:00+12ю3694100 0.0 1014101
03:00+11ю3594100 0.0 101479
06:00+12ююв379120 0.0 1014203
09:00+16ю5977100 0.0 1014558
12:00+19ююз797099 1.4 10141239
15:00+20юз6106191 2.8 10141648
18:00+18юз597388 1.5 1014521
21:00+14сз3893100 1.8 1016214